SAS472 ENTC-ENSB

Flight info

Callsign SAS472
Flight time 1h 26m
Altitude 35000
Route LOMVI P600 PITOL/N0448F370 P600 INPAR
Aircraft A320/M-SDE3FGHIRWY/LB1

Departure

Time 2026-05-07 19:25
Airport Tromsø Airport (ENTC)

Arrival

Time 2026-05-07 20:51
Airport Svalbard Airport, Longyear (ENSB)
Time Latitude Longitude Altitude Speed Heading
2026-05-07 18:41 69.68012 18.90939 37 ft 0 kts 283°
2026-05-07 18:44 69.68012 18.90940 37 ft 0 kts 283°
2026-05-07 18:45 69.68012 18.90939 37 ft 0 kts 283°
2026-05-07 18:45 69.68012 18.90940 37 ft 0 kts 283°
2026-05-07 18:46 69.68012 18.90939 37 ft 0 kts 283°
2026-05-07 18:48 69.68012 18.90940 37 ft 0 kts 283°
2026-05-07 18:49 69.68012 18.90939 37 ft 0 kts 283°
2026-05-07 18:49 69.68012 18.90940 37 ft 0 kts 283°
2026-05-07 19:11 69.68010 18.90966 37 ft 2 kts 283°
2026-05-07 19:11 69.68006 18.91015 37 ft 3 kts 283°
2026-05-07 19:11 69.68002 18.91065 35 ft 3 kts 283°
2026-05-07 19:12 69.67998 18.91118 32 ft 3 kts 283°
2026-05-07 19:12 69.67994 18.91170 32 ft 3 kts 283°
2026-05-07 19:12 69.67990 18.91218 34 ft 2 kts 283°
2026-05-07 19:12 69.67987 18.91258 34 ft 0 kts 283°
2026-05-07 19:15 69.67988 18.91254 34 ft 0 kts 299°
2026-05-07 19:15 69.67992 18.91254 34 ft 0 kts 338°
2026-05-07 19:15 69.68034 18.91259 32 ft 9 kts
2026-05-07 19:16 69.68103 18.91313 33 ft 12 kts 22°
2026-05-07 19:16 69.68195 18.91421 30 ft 16 kts 14°
2026-05-07 19:16 69.68300 18.91481 27 ft 13 kts
2026-05-07 19:16 69.68400 18.91496 30 ft 16 kts 358°
2026-05-07 19:17 69.68484 18.91521 26 ft 10 kts 14°
2026-05-07 19:17 69.68563 18.91582 26 ft 13 kts 13°
2026-05-07 19:17 69.68655 18.91640 24 ft 12 kts 10°
2026-05-07 19:17 69.68749 18.91696 20 ft 7 kts 14°
2026-05-07 19:18 69.68780 18.91807 20 ft 9 kts 92°
2026-05-07 19:18 69.68775 18.91874 21 ft 0 kts 102°
2026-05-07 19:21 69.68775 18.91880 21 ft 2 kts 102°
2026-05-07 19:21 69.68765 18.92003 20 ft 9 kts 102°
2026-05-07 19:21 69.68775 18.92183 22 ft 10 kts 38°
2026-05-07 19:21 69.68848 18.92219 21 ft 12 kts 11°
2026-05-07 19:22 69.68932 18.92281 24 ft 13 kts 15°
2026-05-07 19:22 69.69029 18.92355 22 ft 16 kts 14°
2026-05-07 19:22 69.69147 18.92439 23 ft 19 kts 14°
2026-05-07 19:22 69.69281 18.92539 22 ft 15 kts 15°
2026-05-07 19:23 69.69342 18.92662 22 ft 7 kts 27°
2026-05-07 19:23 69.69357 18.92589 22 ft 6 kts 221°
2026-05-07 19:23 69.69309 18.92540 22 ft 3 kts 193°
2026-05-07 19:24 69.69083 18.92390 23 ft 76 kts 193°
2026-05-07 19:24 69.68325 18.91907 28 ft 144 kts 192°
2026-05-07 19:25 69.67287 18.91180 604 ft 153 kts 195°
2026-05-07 19:25 69.66270 18.90405 1487 ft 146 kts 194°
2026-05-07 19:25 69.65270 18.89756 1935 ft 156 kts 192°
2026-05-07 19:25 69.64147 18.89097 2211 ft 172 kts 191°
2026-05-07 19:26 69.62924 18.88393 2540 ft 188 kts 191°
2026-05-07 19:26 69.61583 18.87602 2857 ft 205 kts 192°
2026-05-07 19:26 69.60180 18.86661 3462 ft 208 kts 193°
2026-05-07 19:26 69.58835 18.85189 4163 ft 210 kts 219°
2026-05-07 19:27 69.58036 18.81753 4826 ft 213 kts 258°
2026-05-07 19:27 69.58112 18.77526 5466 ft 216 kts 282°
2026-05-07 19:27 69.58452 18.73321 6191 ft 217 kts 283°
2026-05-07 19:27 69.58852 18.69145 6897 ft 218 kts 295°
2026-05-07 19:28 69.59783 18.65701 7488 ft 227 kts 321°
2026-05-07 19:28 69.61293 18.63856 7757 ft 251 kts 354°
2026-05-07 19:28 69.63060 18.64831 8131 ft 271 kts 27°
2026-05-07 19:28 69.64724 18.67546 8786 ft 278 kts 29°
2026-05-07 19:29 69.66405 18.70379 9552 ft 282 kts 29°
2026-05-07 19:29 69.68105 18.73270 10264 ft 286 kts 29°
2026-05-07 19:29 69.69888 18.76286 10517 ft 308 kts 28°
2026-05-07 19:29 69.71804 18.79507 10753 ft 327 kts 28°
2026-05-07 19:30 69.73787 18.82844 11316 ft 333 kts 28°
2026-05-07 19:30 69.75795 18.86239 11962 ft 337 kts 28°
2026-05-07 19:30 69.77829 18.89680 12617 ft 340 kts 28°
2026-05-07 19:30 69.79879 18.93151 13272 ft 344 kts 28°
2026-05-07 19:31 69.82053 18.96061 13912 ft 345 kts 17°
2026-05-07 19:31 69.84386 18.97723 14498 ft 346 kts
2026-05-07 19:31 69.86794 18.98174 15102 ft 347 kts 359°
2026-05-07 19:31 69.89210 18.98391 15736 ft 348 kts 359°
2026-05-07 19:32 69.91596 18.98614 16332 ft 350 kts 359°
2026-05-07 19:32 69.94042 18.98847 16912 ft 352 kts 359°
2026-05-07 19:32 69.96499 18.99084 17515 ft 355 kts 359°
2026-05-07 19:32 69.98975 18.99321 18094 ft 358 kts 359°
2026-05-07 19:33 70.01477 18.99558 18641 ft 361 kts 359°
2026-05-07 19:33 70.03990 18.99807 19159 ft 363 kts 359°
2026-05-07 19:33 70.06530 19.00010 19699 ft 365 kts 356°
2026-05-07 19:33 70.09057 18.99245 20223 ft 366 kts 347°
2026-05-07 19:34 70.11514 18.97236 20741 ft 368 kts 340°
2026-05-07 19:34 70.13956 18.94896 21269 ft 371 kts 341°
2026-05-07 19:34 70.16418 18.92556 21768 ft 373 kts 341°
2026-05-07 19:34 70.18901 18.90196 22264 ft 376 kts 341°
2026-05-07 19:35 70.21403 18.87820 22748 ft 379 kts 341°
2026-05-07 19:35 70.23927 18.85420 23217 ft 382 kts 341°
2026-05-07 19:35 70.26468 18.82991 23669 ft 385 kts 341°
2026-05-07 19:35 70.29026 18.80535 24043 ft 388 kts 341°
2026-05-07 19:36 70.31607 18.78045 24421 ft 390 kts 341°
2026-05-07 19:36 70.34200 18.75534 24796 ft 393 kts 341°
2026-05-07 19:36 70.36809 18.73011 25169 ft 395 kts 341°
2026-05-07 19:36 70.39431 18.70469 25534 ft 398 kts 341°
2026-05-07 19:37 70.42065 18.67902 25892 ft 401 kts 341°
2026-05-07 19:37 70.44726 18.65299 26253 ft 403 kts 341°
2026-05-07 19:37 70.47403 18.62678 26598 ft 405 kts 341°
2026-05-07 19:37 70.50088 18.60041 26990 ft 406 kts 341°
2026-05-07 19:38 70.52785 18.57389 27312 ft 409 kts 341°
2026-05-07 19:38 70.55495 18.54713 27640 ft 412 kts 341°
2026-05-07 19:38 70.58196 18.52037 27950 ft 415 kts 341°
2026-05-07 19:38 70.60974 18.49276 28296 ft 417 kts 341°
2026-05-07 19:39 70.63702 18.46556 28658 ft 418 kts 341°
2026-05-07 19:39 70.66477 18.43775 28951 ft 422 kts 341°
2026-05-07 19:39 70.69273 18.40964 29246 ft 424 kts 341°
2026-05-07 19:39 70.72085 18.38129 29516 ft 428 kts 341°
2026-05-07 19:40 70.74911 18.35280 29947 ft 427 kts 341°
2026-05-07 19:40 70.77726 18.32441 30371 ft 426 kts 341°
2026-05-07 19:40 70.80539 18.29597 30731 ft 426 kts 341°
2026-05-07 19:40 70.83352 18.26743 31037 ft 427 kts 341°
2026-05-07 19:41 70.86177 18.23864 31335 ft 428 kts 341°
2026-05-07 19:41 70.89005 18.20969 31643 ft 429 kts 341°
2026-05-07 19:41 70.91841 18.18055 31992 ft 429 kts 341°
2026-05-07 19:41 70.94634 18.15177 32356 ft 429 kts 341°
2026-05-07 19:42 70.97470 18.12248 32685 ft 430 kts 341°
2026-05-07 19:42 71.00308 18.09312 33007 ft 431 kts 341°
2026-05-07 19:42 71.03155 18.06359 33326 ft 432 kts 341°
2026-05-07 19:42 71.06005 18.03393 33646 ft 433 kts 341°
2026-05-07 19:43 71.08849 18.00411 33966 ft 433 kts 341°
2026-05-07 19:43 71.11710 17.97401 34269 ft 434 kts 341°
2026-05-07 19:43 71.14568 17.94394 34516 ft 434 kts 341°
2026-05-07 19:43 71.17440 17.91379 34746 ft 435 kts 341°
2026-05-07 19:44 71.20305 17.88352 34989 ft 435 kts 341°
2026-05-07 19:44 71.23176 17.85299 35097 ft 437 kts 341°
2026-05-07 19:44 71.28980 17.79104 35132 ft 443 kts 341°
2026-05-07 19:45 71.34825 17.72827 35125 ft 444 kts 341°
2026-05-07 19:45 71.40665 17.66526 35135 ft 444 kts 341°
2026-05-07 19:46 71.46522 17.60153 35129 ft 450 kts 341°
2026-05-07 19:46 71.52480 17.53620 35133 ft 462 kts 341°
2026-05-07 19:47 71.58608 17.46865 35129 ft 469 kts 341°
2026-05-07 19:47 71.64773 17.39982 35137 ft 471 kts 341°
2026-05-07 19:48 71.70945 17.33065 35142 ft 470 kts 341°
2026-05-07 19:48 71.77124 17.26150 35148 ft 471 kts 341°
2026-05-07 19:49 71.83309 17.19169 35154 ft 471 kts 341°
2026-05-07 19:49 71.89493 17.12123 35158 ft 472 kts 341°
2026-05-07 19:50 71.95679 17.05027 35157 ft 472 kts 341°
2026-05-07 19:50 72.01978 16.99263 35161 ft 471 kts 353°
2026-05-07 19:51 72.08497 16.96835 35170 ft 471 kts 354°
2026-05-07 19:51 72.15013 16.94374 35170 ft 472 kts 353°
2026-05-07 19:52 72.21528 16.91881 35175 ft 472 kts 353°
2026-05-07 19:52 72.28057 16.89370 35174 ft 472 kts 354°
2026-05-07 19:53 72.34591 16.86870 35175 ft 472 kts 354°
2026-05-07 19:53 72.41129 16.84332 35182 ft 473 kts 354°
2026-05-07 19:54 72.47615 16.81787 35188 ft 473 kts 354°
2026-05-07 19:54 72.54149 16.79193 35190 ft 473 kts 354°
2026-05-07 19:55 72.60683 16.76608 35197 ft 473 kts 354°
2026-05-07 19:55 72.67228 16.74001 35204 ft 473 kts 354°
2026-05-07 19:56 72.73769 16.71370 35205 ft 473 kts 354°
2026-05-07 19:56 72.80298 16.68707 35203 ft 473 kts 354°
2026-05-07 19:57 72.86837 16.66019 35213 ft 473 kts 354°
2026-05-07 19:57 72.93374 16.63322 35210 ft 473 kts 354°
2026-05-07 19:58 72.99864 16.60644 35211 ft 473 kts 354°
2026-05-07 19:58 73.06399 16.57916 35215 ft 473 kts 354°
2026-05-07 19:59 73.12936 16.55156 35208 ft 472 kts 354°
2026-05-07 19:59 73.19450 16.52375 35217 ft 472 kts 354°
2026-05-07 20:00 73.25982 16.49583 35221 ft 472 kts 354°
2026-05-07 20:00 73.32502 16.46787 35231 ft 472 kts 354°
2026-05-07 20:01 73.37928 16.44445 35228 ft 473 kts 354°
2026-05-07 20:01 73.44451 16.41596 35246 ft 472 kts 354°
2026-05-07 20:02 73.50954 16.38702 35245 ft 472 kts 354°
2026-05-07 20:02 73.57475 16.35793 35247 ft 472 kts 354°
2026-05-07 20:03 73.63988 16.32876 35255 ft 472 kts 354°
2026-05-07 20:03 73.70507 16.29953 35253 ft 472 kts 354°
2026-05-07 20:04 73.77022 16.27001 35262 ft 472 kts 354°
2026-05-07 20:04 73.83531 16.23997 35262 ft 471 kts 353°
2026-05-07 20:05 73.90029 16.20975 35270 ft 471 kts 353°
2026-05-07 20:05 73.96534 16.17967 35269 ft 471 kts 354°
2026-05-07 20:06 74.03040 16.14938 35265 ft 471 kts 353°
2026-05-07 20:06 74.09499 16.11890 35272 ft 471 kts 354°
2026-05-07 20:07 74.16001 16.08776 35274 ft 471 kts 353°
2026-05-07 20:07 74.22500 16.05672 35281 ft 471 kts 353°
2026-05-07 20:08 74.29002 16.02499 35277 ft 471 kts 353°
2026-05-07 20:08 74.35486 15.99316 35278 ft 471 kts 353°
2026-05-07 20:09 74.42007 15.96084 35282 ft 472 kts 353°
2026-05-07 20:10 74.51768 15.91251 35291 ft 472 kts 353°
2026-05-07 20:10 74.58274 15.87995 35296 ft 472 kts 353°
2026-05-07 20:11 74.64786 15.84728 35294 ft 472 kts 353°
2026-05-07 20:11 74.71227 15.81425 35299 ft 472 kts 353°
2026-05-07 20:12 74.77761 15.78026 35296 ft 472 kts 353°
2026-05-07 20:12 74.84261 15.74614 35305 ft 471 kts 353°
2026-05-07 20:13 74.90765 15.71203 35295 ft 471 kts 353°
2026-05-07 20:13 74.97259 15.67776 35305 ft 471 kts 353°
2026-05-07 20:14 75.03757 15.64315 35307 ft 471 kts 353°
2026-05-07 20:14 75.10254 15.60812 35306 ft 471 kts 353°
2026-05-07 20:15 75.16709 15.57335 35310 ft 471 kts 353°
2026-05-07 20:15 75.23201 15.53801 35313 ft 471 kts 353°
2026-05-07 20:16 75.29690 15.50201 35320 ft 471 kts 353°
2026-05-07 20:16 75.36183 15.46602 35315 ft 471 kts 353°
2026-05-07 20:17 75.42670 15.42951 35329 ft 471 kts 352°
2026-05-07 20:17 75.49151 15.39268 35337 ft 471 kts 353°
2026-05-07 20:18 75.55629 15.35531 35326 ft 471 kts 352°
2026-05-07 20:18 75.62113 15.31807 35334 ft 470 kts 353°
2026-05-07 20:19 75.68590 15.28038 35328 ft 470 kts 353°
2026-05-07 20:19 75.75060 15.24232 35336 ft 469 kts 353°
2026-05-07 20:20 75.81528 15.20401 35332 ft 469 kts 352°
2026-05-07 20:20 75.87920 15.16578 35331 ft 469 kts 352°
2026-05-07 20:21 75.94381 15.12676 35339 ft 469 kts 352°
2026-05-07 20:21 76.00840 15.08742 35344 ft 469 kts 352°
2026-05-07 20:22 76.07304 15.04774 35340 ft 469 kts 352°
2026-05-07 20:22 76.13765 15.00768 35345 ft 470 kts 352°
2026-05-07 20:23 76.20233 14.96727 35352 ft 469 kts 352°
2026-05-07 20:23 76.26703 14.92675 35347 ft 470 kts 352°
2026-05-07 20:24 76.33163 14.88534 35347 ft 470 kts 352°
2026-05-07 20:24 76.39623 14.84297 35360 ft 470 kts 352°
2026-05-07 20:25 76.46081 14.80049 35353 ft 470 kts 352°
2026-05-07 20:25 76.52546 14.75769 35361 ft 469 kts 352°
2026-05-07 20:25 76.55763 14.73608 35235 ft 466 kts 352°
2026-05-07 20:26 76.58922 14.71474 34521 ft 465 kts 352°
2026-05-07 20:26 76.62123 14.69295 33634 ft 465 kts 352°
2026-05-07 20:26 76.65312 14.67111 32722 ft 464 kts 352°
2026-05-07 20:26 76.68503 14.64928 31794 ft 464 kts 352°
2026-05-07 20:27 76.71687 14.62756 30867 ft 463 kts 352°
2026-05-07 20:27 76.74871 14.60563 29820 ft 462 kts 352°
2026-05-07 20:27 76.78052 14.58358 28608 ft 463 kts 352°
2026-05-07 20:27 76.81189 14.56174 28257 ft 448 kts 352°
2026-05-07 20:28 76.84215 14.54044 28103 ft 432 kts 352°
2026-05-07 20:28 76.87130 14.51970 27954 ft 417 kts 352°
2026-05-07 20:28 76.89944 14.49970 27811 ft 403 kts 352°
2026-05-07 20:28 76.92670 14.48028 27671 ft 391 kts 352°
2026-05-07 20:29 76.95321 14.46136 27532 ft 380 kts 352°
2026-05-07 20:29 76.97908 14.44304 27305 ft 374 kts 353°
2026-05-07 20:29 77.00462 14.42496 26968 ft 370 kts 353°
2026-05-07 20:29 77.02993 14.40693 26600 ft 367 kts 353°
2026-05-07 20:30 77.05510 14.38887 26224 ft 365 kts 353°
2026-05-07 20:30 77.08008 14.37075 25844 ft 362 kts 353°
2026-05-07 20:30 77.10489 14.35260 25463 ft 360 kts 352°
2026-05-07 20:30 77.12952 14.33441 25077 ft 358 kts 352°
2026-05-07 20:31 77.15405 14.31624 24691 ft 355 kts 353°
2026-05-07 20:31 77.17837 14.29831 24314 ft 353 kts 353°
2026-05-07 20:31 77.20256 14.28050 23928 ft 351 kts 353°
2026-05-07 20:31 77.22658 14.26270 23458 ft 349 kts 353°
2026-05-07 20:32 77.25050 14.24501 23003 ft 347 kts 353°
2026-05-07 20:32 77.27425 14.22732 22569 ft 344 kts 353°
2026-05-07 20:32 77.29777 14.20964 22126 ft 342 kts 353°
2026-05-07 20:32 77.32120 14.19203 21699 ft 340 kts 353°
2026-05-07 20:33 77.34443 14.17455 21281 ft 338 kts 353°
2026-05-07 20:33 77.36725 14.15730 20866 ft 336 kts 353°
2026-05-07 20:33 77.39023 14.13990 20460 ft 333 kts 353°
2026-05-07 20:33 77.41305 14.12256 20059 ft 332 kts 353°
2026-05-07 20:34 77.43574 14.10532 19677 ft 330 kts 353°
2026-05-07 20:34 77.45830 14.08821 19289 ft 328 kts 353°
2026-05-07 20:34 77.48072 14.07100 18902 ft 326 kts 352°
2026-05-07 20:34 77.50301 14.05368 18518 ft 324 kts 352°
2026-05-07 20:35 77.52520 14.03644 18098 ft 322 kts 352°
2026-05-07 20:35 77.54726 14.01916 17681 ft 320 kts 352°
2026-05-07 20:35 77.56914 14.00192 17258 ft 318 kts 352°
2026-05-07 20:35 77.59086 13.98476 16852 ft 316 kts 352°
2026-05-07 20:36 77.61250 13.96767 16440 ft 314 kts 353°
2026-05-07 20:36 77.63397 13.95072 16048 ft 312 kts 353°
2026-05-07 20:36 77.65529 13.93379 15666 ft 311 kts 352°
2026-05-07 20:36 77.67657 13.91691 15290 ft 309 kts 352°
2026-05-07 20:37 77.69772 13.90011 14916 ft 307 kts 352°
2026-05-07 20:37 77.71873 13.88336 14546 ft 305 kts 352°
2026-05-07 20:37 77.73961 13.86668 14205 ft 304 kts 352°
2026-05-07 20:37 77.76040 13.84992 13810 ft 302 kts 352°
2026-05-07 20:38 77.78103 13.83312 13436 ft 300 kts 352°
2026-05-07 20:38 77.80154 13.81616 13055 ft 298 kts 352°
2026-05-07 20:38 77.82193 13.79927 12681 ft 297 kts 352°
2026-05-07 20:38 77.84221 13.78263 12312 ft 295 kts 352°
2026-05-07 20:39 77.86234 13.76622 11960 ft 293 kts 352°
2026-05-07 20:39 77.88241 13.74980 11592 ft 291 kts 352°
2026-05-07 20:39 77.90234 13.73333 11239 ft 290 kts 352°
2026-05-07 20:39 77.92213 13.71698 10885 ft 288 kts 352°
2026-05-07 20:40 77.94182 13.70064 10539 ft 286 kts 351°
2026-05-07 20:40 77.96139 13.68443 10250 ft 283 kts 351°
2026-05-07 20:40 77.98057 13.66841 9999 ft 277 kts 351°
2026-05-07 20:40 77.99948 13.65249 9658 ft 275 kts 351°
2026-05-07 20:41 78.01830 13.63649 9321 ft 273 kts 351°
2026-05-07 20:41 78.03672 13.62104 8986 ft 271 kts 353°
2026-05-07 20:41 78.05544 13.61878 8658 ft 268 kts
2026-05-07 20:41 78.07355 13.63843 8314 ft 266 kts 20°
2026-05-07 20:42 78.09017 13.67707 7972 ft 265 kts 29°
2026-05-07 20:42 78.10621 13.72031 7634 ft 264 kts 29°
2026-05-07 20:42 78.12222 13.76353 7304 ft 262 kts 29°
2026-05-07 20:42 78.13813 13.80658 6984 ft 261 kts 29°
2026-05-07 20:43 78.15395 13.84945 6662 ft 260 kts 28°
2026-05-07 20:43 78.16973 13.89227 6320 ft 259 kts 29°
2026-05-07 20:43 78.18537 13.93506 5985 ft 257 kts 29°
2026-05-07 20:43 78.20089 13.97774 5730 ft 253 kts 29°
2026-05-07 20:44 78.21596 14.01930 5590 ft 245 kts 29°
2026-05-07 20:44 78.23056 14.05959 5432 ft 237 kts 29°
2026-05-07 20:44 78.24468 14.09962 5042 ft 234 kts 31°
2026-05-07 20:44 78.25791 14.14205 4892 ft 221 kts 33°
2026-05-07 20:45 78.27038 14.18393 4585 ft 215 kts 34°
2026-05-07 20:45 78.28259 14.22531 4198 ft 212 kts 34°
2026-05-07 20:45 78.29391 14.27117 3803 ft 210 kts 50°
2026-05-07 20:45 78.30095 14.33369 3408 ft 210 kts 72°
2026-05-07 20:46 78.30270 14.40461 3031 ft 210 kts 95°
2026-05-07 20:46 78.29965 14.47295 2989 ft 200 kts 104°
2026-05-07 20:46 78.29608 14.53836 2988 ft 196 kts 104°
2026-05-07 20:46 78.29261 14.60295 2990 ft 194 kts 103°
2026-05-07 20:47 78.29036 14.64550 2993 ft 194 kts 103°
2026-05-07 20:47 78.28698 14.70977 2991 ft 194 kts 103°
2026-05-07 20:47 78.28360 14.77402 2905 ft 194 kts 103°
2026-05-07 20:47 78.27914 14.85801 2619 ft 189 kts 103°
2026-05-07 20:48 78.27584 14.91998 2317 ft 186 kts 104°
2026-05-07 20:48 78.27362 14.96147 2134 ft 184 kts 105°
2026-05-07 20:48 78.27039 15.02170 1879 ft 179 kts 105°
2026-05-07 20:48 78.26734 15.07824 1599 ft 164 kts 105°
2026-05-07 20:49 78.26454 15.13007 1376 ft 149 kts 105°
2026-05-07 20:49 78.26195 15.17764 1145 ft 143 kts 105°
2026-05-07 20:49 78.25941 15.22432 942 ft 140 kts 105°
2026-05-07 20:49 78.25690 15.27014 750 ft 138 kts 105°
2026-05-07 20:50 78.25441 15.31559 572 ft 137 kts 105°
2026-05-07 20:50 78.25192 15.36068 380 ft 137 kts 105°
2026-05-07 20:50 78.24944 15.40563 195 ft 136 kts 105°
2026-05-07 20:50 78.24700 15.44930 89 ft 121 kts 105°
2026-05-07 20:51 78.24558 15.47723 90 ft 53 kts 104°
2026-05-07 20:51 78.24470 15.49186 89 ft 14 kts 107°
2026-05-07 20:51 78.24528 15.49451 88 ft 11 kts 357°
2026-05-07 20:51 78.24573 15.49299 91 ft 7 kts 311°
2026-05-07 20:52 78.24603 15.49141 88 ft 5 kts 321°
2026-05-07 20:52 78.24639 15.48935 92 ft 10 kts 303°
2026-05-07 20:52 78.24647 15.48581 91 ft 8 kts 252°
2026-05-07 20:52 78.24653 15.48566 90 ft 1 kts 101°
2026-05-07 20:53 78.24653 15.48568 90 ft 0 kts 108°